Weather History for Stanley, ND

Change the Weather History Date:

Wednesday, November 6, 2013

  Actual Average (KMOT) Record (KMOT)
Temperature  
Mean Temperature 26 °F 34 °F  
Max Temperature 37 °F 43 °F 75 °F (2009)
Min Temperature 14 °F 25 °F -9 °F (1919)
Degree Days  
Heating Degree Days 40 31  
Month to date heating degree days 179  
Since 1 July heating degree days 1139  
Moisture  
Dew Point 19 °F    
Average Humidity 82    
Maximum Humidity 100    
Minimum Humidity 48    
Precipitation  
Precipitation 0.00 in 0.03 in 0.30 in (1996)
Month to date precipitation 0.17  
Year to date precipitation 16.23  
Sea Level Pressure  
Sea Level Pressure 30.05 in    
Wind  
Wind Speed 5 mph (WNW)    
Max Wind Speed 12 mph    
Max Gust Speed -    
Visibility 10 miles    
Events      
T = Trace of Precipitation, MM = Missing Value Source: NWS Daily Summary

Daily Weather History Graph

Daily Weather History Graph

Search for Another Location

Airport:

Trip Planner

Search our weather history database for the weather conditions in past years. The results will help you decide how hot, cold, wet, or windy it might be!

Date:

Astronomy

Nov. 06, 2013 Rise Set
Actual Time 7:43 AM CST 5:22 PM CST
Civil Twilight 7:10 AM CST 5:55 PM CST
Nautical Twilight 6:32 AM CST 6:32 PM CST
Astronomical Twilight 5:56 AM CST 7:09 PM CST
Moon 11:07 AM CST (11/6) 8:22 PM CST (11/6)
Length of Visible Light 10h 45m
Length of Day
9h 38m
Waxing Crescent, 14% of the Moon is Illuminated
Nov 6
Waxing Crescent
Nov 9
First Quarter
Nov 17
Full
Nov 25
Last Quarter
Dec 2
New

Hourly Weather History & Observations

Time (CST) Temp. Windchill Dew Point Humidity Pressure Visibility Wind Dir Wind Speed Gust Speed Precip Events Conditions
12:35 AM 17.6 °F - 17.6 °F 100% 30.00 in 10.0 mi Calm Calm - N/A   Clear
12:55 AM 19.4 °F - 19.4 °F 100% 30.00 in 10.0 mi Calm Calm - N/A   Mostly Cloudy
1:15 AM 17.6 °F 12.3 °F 17.6 °F 100% 30.00 in 10.0 mi WSW 3.5 mph - N/A   Overcast
1:35 AM 19.4 °F - 19.4 °F 100% 30.00 in 10.0 mi Calm Calm - N/A   Overcast
1:55 AM 21.2 °F 16.4 °F 21.2 °F 100% 29.99 in 10.0 mi South 3.5 mph - N/A   Overcast
2:15 AM 21.2 °F 16.4 °F 21.2 °F 100% 29.99 in 10.0 mi SW 3.5 mph - N/A   Overcast
2:35 AM 23.0 °F 18.4 °F 23.0 °F 100% 29.99 in 10.0 mi WSW 3.5 mph - N/A   Overcast
2:55 AM 23.0 °F 18.4 °F 23.0 °F 100% 29.99 in 10.0 mi SW 3.5 mph - N/A   Overcast
3:15 AM 21.2 °F 16.4 °F 21.2 °F 100% 29.99 in 10.0 mi WSW 3.5 mph - N/A   Overcast
3:35 AM 19.4 °F 11.5 °F 19.4 °F 100% 29.98 in 10.0 mi WSW 5.8 mph - N/A   Mostly Cloudy
3:55 AM 19.4 °F 12.8 °F 19.4 °F 100% 29.98 in 10.0 mi WSW 4.6 mph - N/A   Mostly Cloudy
4:15 AM 21.2 °F 12.6 °F 21.2 °F 100% 29.98 in 10.0 mi WSW 6.9 mph - N/A   Overcast
4:35 AM 23.0 °F 14.7 °F 23.0 °F 100% 29.98 in 10.0 mi WSW 6.9 mph - N/A   Overcast
4:55 AM 23.0 °F 15.8 °F 21.2 °F 93% 29.98 in 10.0 mi WSW 5.8 mph - N/A   Mostly Cloudy
5:15 AM 24.8 °F 16.9 °F 23.0 °F 93% 29.98 in 10.0 mi WSW 6.9 mph - N/A   Overcast
5:35 AM 24.8 °F - 23.0 °F 93% 29.99 in 10.0 mi Calm Calm - N/A   Overcast
5:55 AM 24.8 °F - 23.0 °F 93% 29.98 in 10.0 mi Calm Calm - N/A   Overcast
6:15 AM 24.8 °F 20.5 °F 23.0 °F 93% 29.98 in 10.0 mi South 3.5 mph - N/A   Overcast
6:35 AM 24.8 °F 17.9 °F 21.2 °F 86% 29.98 in 10.0 mi WSW 5.8 mph - N/A   Overcast
6:55 AM 23.0 °F - 21.2 °F 93% 29.98 in 10.0 mi Calm Calm - N/A   Mostly Cloudy
7:15 AM 17.6 °F - 17.6 °F 100% 29.98 in 10.0 mi Calm Calm - N/A   Mostly Cloudy
7:35 AM 19.4 °F 12.8 °F 17.6 °F 93% 29.98 in 10.0 mi WSW 4.6 mph - N/A   Scattered Clouds
7:55 AM 19.4 °F 12.8 °F 17.6 °F 93% 29.99 in 10.0 mi NNE 4.6 mph - N/A   Clear
8:15 AM 19.4 °F - 17.6 °F 93% 30.00 in 10.0 mi Calm Calm - N/A   Clear
8:35 AM 19.4 °F 12.8 °F 19.4 °F 100% 30.00 in 10.0 mi SW 4.6 mph - N/A   Clear
8:55 AM 23.0 °F - 21.2 °F 93% 30.01 in 10.0 mi Calm Calm - N/A   Clear
9:15 AM 24.8 °F 20.5 °F 23.0 °F 93% 30.01 in 10.0 mi South 3.5 mph - N/A   Clear
9:35 AM 26.6 °F - 23.0 °F 86% 30.01 in 10.0 mi Calm Calm - N/A   Clear
9:55 AM 28.4 °F 24.6 °F 24.8 °F 86% 30.01 in 10.0 mi SW 3.5 mph - N/A   Clear
10:15 AM 30.2 °F 24.3 °F 26.6 °F 86% 30.01 in 10.0 mi SW 5.8 mph - N/A   Mostly Cloudy
10:35 AM 32.0 °F 27.5 °F 24.8 °F 75% 30.01 in 10.0 mi West 4.6 mph - N/A   Overcast
10:55 AM 32.0 °F 24.8 °F 24.8 °F 75% 30.02 in 10.0 mi WSW 8.1 mph - N/A   Overcast
11:15 AM 32.0 °F 24.2 °F 23.0 °F 69% 30.02 in 10.0 mi West 9.2 mph - N/A   Overcast
11:35 AM 32.0 °F 24.8 °F 23.0 °F 69% 30.02 in 10.0 mi West 8.1 mph - N/A   Overcast
11:55 AM 33.8 °F 27.0 °F 23.0 °F 65% 30.02 in 10.0 mi WNW 8.1 mph - N/A   Overcast
12:15 PM 33.8 °F 27.0 °F 23.0 °F 65% 30.02 in 10.0 mi WNW 8.1 mph - N/A   Overcast
12:35 PM 35.6 °F 29.9 °F 23.0 °F 60% 30.02 in 10.0 mi NW 6.9 mph - N/A   Mostly Cloudy
12:55 PM 35.6 °F 29.2 °F 23.0 °F 60% 30.02 in 10.0 mi NW 8.1 mph - N/A   Scattered Clouds
1:15 PM 35.6 °F 29.2 °F 19.4 °F 52% 30.02 in 10.0 mi NW 8.1 mph - N/A   Clear
1:35 PM 37.4 °F 31.4 °F 19.4 °F 48% 30.03 in 10.0 mi NNW 8.1 mph - N/A   Clear
1:55 PM 35.6 °F 29.2 °F 19.4 °F 52% 30.03 in 10.0 mi NNW 8.1 mph - N/A   Clear
2:15 PM 37.4 °F 31.4 °F 19.4 °F 48% 30.03 in 10.0 mi NW 8.1 mph - N/A   Clear
2:35 PM 37.4 °F 30.3 °F 19.4 °F 48% 30.04 in 10.0 mi NNW 10.4 mph - N/A   Clear
2:55 PM 35.6 °F 29.9 °F 21.2 °F 56% 30.05 in 10.0 mi NNW 6.9 mph - N/A   Clear
3:15 PM 35.6 °F 28.0 °F 19.4 °F 52% 30.05 in 10.0 mi NNW 10.4 mph - N/A   Clear
3:35 PM 33.8 °F 25.8 °F 19.4 °F 56% 30.06 in 10.0 mi NNW 10.4 mph - N/A   Clear
3:55 PM 32.0 °F 23.0 °F 19.4 °F 60% 30.07 in 10.0 mi North 11.5 mph - N/A   Clear
4:15 PM 32.0 °F 23.0 °F 21.2 °F 64% 30.08 in 10.0 mi NNW 11.5 mph - N/A   Clear
4:35 PM 32.0 °F 23.6 °F 23.0 °F 69% 30.09 in 10.0 mi NNW 10.4 mph - N/A   Clear
4:55 PM 28.4 °F 20.4 °F 23.0 °F 80% 30.11 in 10.0 mi NW 8.1 mph - N/A   Clear
5:15 PM 26.6 °F 19.1 °F 21.2 °F 80% 30.11 in 10.0 mi NW 6.9 mph - N/A   Clear
5:35 PM 24.8 °F 17.9 °F 19.4 °F 80% 30.12 in 10.0 mi WNW 5.8 mph - N/A   Clear
5:55 PM 23.0 °F 13.9 °F 19.4 °F 86% 30.12 in 10.0 mi NW 8.1 mph - N/A   Clear
6:15 PM 23.0 °F 13.9 °F 19.4 °F 86% 30.13 in 10.0 mi NW 8.1 mph - N/A   Clear
6:35 PM 23.0 °F 13.1 °F 17.6 °F 80% 30.14 in 10.0 mi NW 9.2 mph - N/A   Clear
6:55 PM 23.0 °F 11.7 °F 17.6 °F 80% 30.15 in 10.0 mi NW 11.5 mph - N/A   Clear
7:15 PM 23.0 °F 13.1 °F 17.6 °F 80% 30.15 in 10.0 mi NW 9.2 mph - N/A   Clear
7:35 PM 19.4 °F 7.9 °F 15.8 °F 86% 30.16 in 10.0 mi NW 10.4 mph - N/A   Clear
7:55 PM 19.4 °F 8.6 °F 14.0 °F 80% 30.16 in 10.0 mi NNW 9.2 mph - N/A   Clear
8:15 PM 15.8 °F 5.1 °F 12.2 °F 86% 30.16 in 10.0 mi NW 8.1 mph - N/A   Clear
8:35 PM 15.8 °F 5.1 °F 12.2 °F 86% 30.16 in 10.0 mi NW 8.1 mph - N/A   Clear
8:55 PM 15.8 °F 7.2 °F 12.2 °F 86% 30.17 in 10.0 mi WNW 5.8 mph - N/A   Clear
9:15 PM 14.0 °F 3.9 °F 10.4 °F 86% 30.17 in 10.0 mi West 6.9 mph - N/A   Clear
9:35 PM 15.8 °F 5.1 °F 10.4 °F 79% 30.17 in 10.0 mi West 8.1 mph - N/A   Clear
9:55 PM 15.8 °F 6.1 °F 10.4 °F 79% 30.17 in 10.0 mi West 6.9 mph - N/A   Clear
10:15 PM 14.0 °F 5.1 °F 10.4 °F 86% 30.17 in 10.0 mi WNW 5.8 mph - N/A   Clear
10:35 PM 14.0 °F 5.1 °F 10.4 °F 86% 30.18 in 10.0 mi WNW 5.8 mph - N/A   Clear
10:55 PM 15.8 °F 10.2 °F 10.4 °F 79% 30.18 in 10.0 mi SSW 3.5 mph - N/A   Clear
11:15 PM 17.6 °F 9.3 °F 12.2 °F 79% 30.18 in 10.0 mi WSW 5.8 mph - N/A   Scattered Clouds
11:35 PM 19.4 °F 10.4 °F 15.8 °F 86% 30.17 in 10.0 mi West 6.9 mph - N/A   Overcast
11:55 PM 23.0 °F 13.9 °F 17.6 °F 80% 30.17 in 10.0 mi West 8.1 mph - N/A   Overcast